Saint Louis, MO

12:54 PM CST on February 13, 2016 (GMT -0600)
Lambert-Saint Louis International

Weather History for KSTL - November, 2012

Change the Weather History Date:

Saturday, November 10, 2012

  Actual Average Record
Temperature  
Mean Temperature 69 °F 50 °F  
Max Temperature 81 °F 59 °F 81 °F (2012)
Min Temperature 57 °F 41 °F 18 °F (1973)
Degree Days  
Heating Degree Days 0 16  
Month to date heating degree days 166 138  
Since 1 July heating degree days 479 414  
Cooling Degree Days 4 0  
Month to date cooling degree days 4 0  
Year to date cooling degree days 2209 1642  
Growing Degree Days 20 (Base 50)    
Moisture  
Dew Point 46 °F    
Average Humidity 43    
Maximum Humidity 60    
Minimum Humidity 25    
Precipitation  
Precipitation T in 0.13 in 0.97 in (1974)
Month to date precipitation 0.10 1.22  
Year to date precipitation 29.00 35.43  
Snow  
Snow 0.00 in 0.00 in T in (1984)
Month to date snowfall 0.0 0.1  
Since 1 July snowfall 0.0 0.1  
Since 1 September snowfall 0.0 0.1  
Snow Depth 0.00 in    
Sea Level Pressure  
Sea Level Pressure 29.94 in    
Wind  
Wind Speed 14 mph (South)    
Max Wind Speed 24 mph    
Max Gust Speed 33 mph    
Visibility 10 miles    
Events Rain    
T = Trace of Precipitation, MM = Missing Value Source: NWS Daily Summary

Daily Weather History Graph

Daily Weather History Graph

Search for Another Location

Airport or City:

Trip Planner

Search our weather history database for the weather conditions in past years. The results will help you decide how hot, cold, wet, or windy it might be!

Date:

Astronomy

Nov. 10, 2012 Rise Set
Actual Time 6:38 AM CST 4:51 PM CST
Civil Twilight 6:10 AM CST 5:19 PM CST
Nautical Twilight 5:38 AM CST 5:51 PM CST
Astronomical Twilight 5:07 AM CST 6:22 PM CST
Moon 2:46 AM CST (11/10) 2:36 PM CST (11/10)
Length of Visible Light 11h 09m
Length of Day
10h 12m
Waning Crescent, 14% of the Moon is Illuminated
Nov 10
Waning Crescent
Nov 13
New
Nov 20
First Quarter
Nov 28
Full
Dec 6
Last Quarter

Hourly Weather History & Observations

Time (CST) Temp. Dew Point Humidity Pressure Visibility Wind Dir Wind Speed Gust Speed Precip Events Conditions
12:51 AM 63.0 °F 46.0 °F 54% 29.97 in 10.0 mi SSW 11.5 mph - N/A   Scattered Clouds
1:51 AM 62.1 °F 45.0 °F 53% 29.97 in 10.0 mi South 8.1 mph - N/A   Scattered Clouds
2:51 AM 60.1 °F 44.1 °F 55% 29.97 in 10.0 mi South 9.2 mph - N/A   Scattered Clouds
3:51 AM 60.1 °F 44.1 °F 55% 29.97 in 10.0 mi SSW 8.1 mph - N/A   Mostly Cloudy
4:51 AM 59.0 °F 44.1 °F 58% 29.97 in 10.0 mi SE 5.8 mph - N/A   Scattered Clouds
5:51 AM 59.0 °F 43.0 °F 55% 29.97 in 10.0 mi SSE 9.2 mph - 0.00 in Rain Light Rain
6:51 AM 59.0 °F 44.1 °F 58% 29.98 in 10.0 mi SSE 9.2 mph - 0.00 in   Scattered Clouds
7:51 AM 61.0 °F 46.0 °F 58% 29.99 in 10.0 mi South 10.4 mph - N/A   Scattered Clouds
8:51 AM 64.9 °F 48.9 °F 56% 29.98 in 10.0 mi South 10.4 mph - N/A   Scattered Clouds
9:51 AM 69.1 °F 48.9 °F 49% 29.98 in 10.0 mi South 12.7 mph 20.7 mph N/A   Scattered Clouds
10:51 AM 73.9 °F 51.1 °F 45% 29.96 in 10.0 mi SSW 11.5 mph - N/A   Scattered Clouds
11:51 AM 78.1 °F 48.9 °F 36% 29.92 in 10.0 mi SSW 21.9 mph 28.8 mph N/A   Partly Cloudy
12:51 PM 80.1 °F 43.0 °F 27% 29.89 in 10.0 mi SSW 19.6 mph 29.9 mph N/A   Partly Cloudy
1:51 PM 81.0 °F 41.0 °F 24% 29.89 in 10.0 mi South 18.4 mph 26.5 mph N/A   Scattered Clouds
2:51 PM 80.1 °F 41.0 °F 25% 29.89 in 10.0 mi South 13.8 mph 26.5 mph N/A   Scattered Clouds
3:51 PM 75.2 °F 44.6 °F 34% 29.91 in 10.0 mi South 18.4 mph - N/A   Scattered Clouds
4:51 PM 73.0 °F 45.0 °F 37% 29.91 in 10.0 mi SSE 17.3 mph 25.3 mph N/A   Scattered Clouds
5:51 PM 71.1 °F 46.9 °F 42% 29.94 in 10.0 mi South 19.6 mph 29.9 mph N/A   Scattered Clouds
6:51 PM 69.1 °F 48.0 °F 47% 29.94 in 10.0 mi South 18.4 mph 29.9 mph N/A   Mostly Cloudy
7:51 PM 66.9 °F 51.1 °F 57% 29.94 in 10.0 mi South 18.4 mph 31.1 mph N/A   Mostly Cloudy
8:51 PM 66.9 °F 50.0 °F 54% 29.94 in 10.0 mi South 16.1 mph 26.5 mph N/A   Mostly Cloudy
9:51 PM 66.0 °F 48.0 °F 52% 29.93 in 10.0 mi South 17.3 mph 24.2 mph N/A   Mostly Cloudy
10:51 PM 66.0 °F 48.9 °F 54% 29.91 in 10.0 mi South 17.3 mph 24.2 mph N/A   Mostly Cloudy
11:51 PM 66.0 °F 48.9 °F 54% 29.90 in 10.0 mi South 19.6 mph 24.2 mph N/A   Mostly Cloudy